OPS 4682 DEB, 19950

Orbit data source: Space-Track

OPS 4682 DEB, 19950 is space debris in LEO originally from a launch on Sat, 03 Apr 1965 UTC launched from the Air Force Western Test Range (AFWTR). Debris objects in space refer to the collection of defunct objects orbiting the Earth. Examples of debris include non-operational satellites, rocket bodies, and fragments generated from explosions, collisions, or faulty payload assembly.

Loading next visibility...
Identifier
19950, 1965-027AY
Orbit
LEO
Country
Flag of USUS
Related business
Manufacturer
Unknown
Mission
Spacecraft
Bus & Motor
Unknown
Mass
Unknown
Launch date (UTC)
1965-04-03 (61 years ago)
Launch vehicle
Unknown
Launch site
Air Force Western Test Range (AFWTR)
Object type
Payload
Rocket body
Debris
Shape & HBR
Unknown shape, 0.1 m
Radar Cross Section
Small (<0.1 m²)

Expand to show TLE details & history
Last TLE update: 3 days ago

TLE from 3 days ago
0 OPS 4682 DEB
1 19950U 65027AY  26117.14788400 -.00000245  00000-0 -89825-3 0  9991
2 19950  90.2458   8.1921 0030126 326.8285  33.0945 12.95004005546040
Epoch: 2026-04-27T03:32Z
TLE epoch observation values (Epoch: 2026-04-27T03:32:57.177Z)
Latitude
-0°
Longitude
99.81215°
Altitude
1,265.285 km
Speed
7.232 km/s
True Right ascension
00h 32m 46s
True Declination
0° 00' 00"
Sunlit
Object was in daylight at epoch
Visualization orbit readout
Latitude
Unknown
Longitude
Unknown
Altitude
Unknown
Speed
Unknown
Apparent Right ascension
Unknown
Apparent Declination
Unknown
Sunlit
N/A
Visualization observer readout
Local Sidereal Time
05:43:52
Azimuth
Unknown
Elevation
Unknown
Doppler factor
Unknown
Orbital elements
Apogee altitude
1,301.926 km
Perigee altitude
1,255.791 km
Semi-major axis
7,656.996 km
Eccentricity
0.00301
Inclination
90.2458°
RAAN
8.1921°
Arg. of periapsis
326.8285°
True anomaly
33.28359°
Mean anomaly
33.0945°
Eccentric anomaly
33.18899°
Mean motion
3.23933 °/min
Orbital period
111.13 mins
BSTAR
-0.00089825
Loading maneuver chart data...
Computing Atmospheric mass density...
Loading historical data...
Loading historical data...
Loading historical data...
Loading historical data...
Loading historical data...
Loading historical data...
Loading historical data...

Documentation

Showing up to 5 results
|